Rochester/St. Mary\'s Hospita, MN

5:06 PM CDT on June 23, 2018 (GMT -0500)
Rochester/St. Mary\'s Hospita

Weather History for K9MN - October, 2017

Change the Weather History Date:

Sunday, October 22, 2017

  Actual Average (KRST) Record (KRST)
Temperature  
Mean Temperature 56 °F -  
Max Temperature 62 °F 56 °F 80 °F (1992)
Min Temperature 49 °F 35 °F 16 °F (1930)
Degree Days  
Heating Degree Days 10    
Growing Degree Days 6 (Base 50)    
Moisture  
Dew Point 39 °F    
Average Humidity 61    
Maximum Humidity 81    
Minimum Humidity 31    
Precipitation  
Precipitation 0.00 in - - ()
Sea Level Pressure  
Sea Level Pressure 29.97 in    
Wind  
Wind Speed 10 mph (WSW)    
Max Wind Speed 16 mph    
Max Gust Speed 24 mph    
Visibility 10 miles    
Events      
Averages and records for this station are not official NWS values.
T = Trace of Precipitation, MM = Missing Value Source: NWS Daily Summary

Daily Weather History Graph

Daily Weather History Graph

Search for Another Location

Airport or City:

Astronomy

Oct. 22, 2017 Rise Set
Actual Time 7:33 AM CDT 6:14 PM CDT
Civil Twilight 7:04 AM CDT 6:43 PM CDT
Nautical Twilight 6:30 AM CDT 7:17 PM CDT
Astronomical Twilight 5:57 AM CDT 7:50 PM CDT
Moon 10:10 AM CDT (10/22) 8:19 PM CDT (10/22)
Length of Visible Light 11h 39m
Length of Day
10h 40m
Waxing Crescent, 8% of the Moon is Illuminated
Oct 22
Waxing Crescent
Oct 27
First Quarter
Nov 4
Full
Nov 10
Last Quarter
Nov 18
New

Hourly Weather History & Observations

Time (CDT) Temp. Dew Point Humidity Pressure Visibility Wind Dir Wind Speed Gust Speed Precip Events Conditions
12:12 AM 53.2 °F 46.9 °F 79% 29.87 in 10.0 mi West 13.8 mph 20.7 mph N/A   Overcast
12:32 AM 52.7 °F 45.9 °F 78% 29.88 in 10.0 mi West 13.8 mph 24.2 mph N/A   Mostly Cloudy
12:52 AM 52.2 °F 45.7 °F 79% 29.89 in 10.0 mi WNW 16.1 mph 21.9 mph N/A   Scattered Clouds
1:12 AM 51.6 °F 45.1 °F 79% 29.87 in 10.0 mi WNW 13.8 mph - N/A   Scattered Clouds
1:32 AM 51.1 °F 45.0 °F 80% 29.89 in 10.0 mi West 6.9 mph 17.3 mph N/A   Scattered Clouds
1:52 AM 51.1 °F 44.6 °F 78% 29.89 in 10.0 mi West 5.8 mph - N/A   Scattered Clouds
2:11 AM 50.9 °F 44.4 °F 78% 29.90 in 10.0 mi West 5.8 mph 9.2 mph N/A   Clear
2:32 AM 50.5 °F 43.9 °F 78% 29.91 in 10.0 mi West 8.1 mph - N/A   Clear
2:52 AM 50.4 °F 43.5 °F 77% 29.92 in 10.0 mi West 9.2 mph - N/A   Clear
3:12 AM 50.4 °F 43.7 °F 78% 29.91 in 10.0 mi West 5.8 mph - N/A   Clear
3:32 AM 50.2 °F 43.9 °F 79% 29.91 in 10.0 mi West 4.6 mph - N/A   Scattered Clouds
3:52 AM 50.0 °F 43.9 °F 79% 29.90 in 10.0 mi West 4.6 mph - N/A   Mostly Cloudy
4:12 AM 50.0 °F 43.9 °F 79% 29.90 in 10.0 mi West 8.1 mph - N/A   Scattered Clouds
4:32 AM 49.6 °F 43.9 °F 81% 29.92 in 10.0 mi West 10.4 mph - N/A   Clear
4:52 AM 49.6 °F 43.2 °F 78% 29.92 in 10.0 mi West 10.4 mph - N/A   Clear
5:12 AM 49.6 °F 43.0 °F 78% 29.93 in 10.0 mi West 8.1 mph - N/A   Scattered Clouds
5:32 AM 49.6 °F 42.8 °F 77% 29.94 in 10.0 mi West 9.2 mph - N/A   Scattered Clouds
5:52 AM 49.5 °F 42.8 °F 78% 29.94 in 10.0 mi West 9.2 mph - N/A   Mostly Cloudy
6:11 AM 49.5 °F 42.1 °F 76% 29.95 in 10.0 mi West 8.1 mph - N/A   Scattered Clouds
6:32 AM 49.5 °F 41.9 °F 75% 29.96 in 10.0 mi West 10.4 mph - N/A   Mostly Cloudy
6:52 AM 49.5 °F 41.7 °F 75% 29.97 in 10.0 mi West 9.2 mph - N/A   Overcast
7:11 AM 49.3 °F 41.4 °F 74% 29.96 in 10.0 mi West 10.4 mph 16.1 mph N/A   Mostly Cloudy
7:32 AM 49.5 °F 41.4 °F 74% 29.97 in 10.0 mi West 6.9 mph - N/A   Overcast
7:52 AM 49.1 °F 41.0 °F 74% 29.97 in 10.0 mi West 5.8 mph - N/A   Scattered Clouds
8:11 AM 49.1 °F 41.2 °F 74% 29.97 in 10.0 mi West 5.8 mph - N/A   Mostly Cloudy
8:32 AM 49.3 °F 41.4 °F 74% 29.98 in 10.0 mi West 6.9 mph - N/A   Overcast
8:52 AM 49.1 °F 41.2 °F 74% 29.99 in 10.0 mi West 6.9 mph - N/A   Mostly Cloudy
9:11 AM 49.5 °F 41.0 °F 73% 29.99 in 10.0 mi WNW 8.1 mph - N/A   Mostly Cloudy
9:32 AM 49.6 °F 41.0 °F 72% 30.00 in 10.0 mi West 11.5 mph - N/A   Scattered Clouds
9:52 AM 49.8 °F 41.0 °F 72% 30.01 in 10.0 mi West 8.1 mph - N/A   Clear
10:11 AM 49.5 °F 40.8 °F 72% 30.02 in 10.0 mi West 5.8 mph - N/A   Clear
10:32 AM 50.0 °F 41.0 °F 71% 30.02 in 10.0 mi West 3.5 mph - N/A   Scattered Clouds
10:52 AM 50.0 °F 41.4 °F 72% 30.03 in 10.0 mi West 5.8 mph - N/A   Scattered Clouds
11:11 AM 50.4 °F 41.0 °F 70% 30.02 in 10.0 mi West 6.9 mph - N/A   Clear
11:32 AM 51.1 °F 41.4 °F 69% 30.03 in 10.0 mi West 6.9 mph - N/A   Clear
11:52 AM 51.4 °F 40.6 °F 67% 30.03 in 10.0 mi West 8.1 mph - N/A   Clear
12:11 PM 52.2 °F 40.5 °F 64% 30.03 in 10.0 mi WNW 10.4 mph - N/A   Clear
12:32 PM 53.2 °F 39.9 °F 61% 30.02 in 10.0 mi West 8.1 mph - N/A   Clear
12:52 PM 54.9 °F 39.0 °F 55% 30.02 in 10.0 mi West 8.1 mph - N/A   Clear
1:12 PM 56.1 °F 38.3 °F 51% 30.01 in 10.0 mi West 9.2 mph - N/A   Clear
1:32 PM 56.5 °F 36.0 °F 46% 30.00 in 10.0 mi West 12.7 mph - N/A   Clear
1:52 PM 57.4 °F 34.5 °F 42% 29.99 in 10.0 mi West 10.4 mph 21.9 mph N/A   Clear
2:12 PM 58.3 °F 34.2 °F 40% 29.99 in 10.0 mi West 16.1 mph 23.0 mph N/A   Clear
2:32 PM 59.5 °F 34.2 °F 39% 30.00 in 10.0 mi WNW 6.9 mph 16.1 mph N/A   Clear
2:52 PM 60.1 °F 31.5 °F 34% 29.99 in 10.0 mi WNW 12.7 mph 24.2 mph N/A   Clear
3:12 PM 61.0 °F 31.6 °F 33% 29.99 in 10.0 mi West 11.5 mph 19.6 mph N/A   Clear
3:32 PM 61.2 °F 31.8 °F 33% 29.99 in 10.0 mi West 12.7 mph 21.9 mph N/A   Clear
3:51 PM 61.9 °F 31.5 °F 32% 29.99 in 10.0 mi West 12.7 mph 20.7 mph N/A   Clear
4:12 PM 62.1 °F 31.3 °F 31% 29.98 in 10.0 mi West 9.2 mph 17.3 mph N/A   Clear
4:32 PM 61.7 °F 31.3 °F 32% 29.98 in 10.0 mi West 10.4 mph 19.6 mph N/A   Clear
4:51 PM 61.9 °F 31.1 °F 31% 29.98 in 10.0 mi West 8.1 mph 19.6 mph N/A   Clear
5:12 PM 61.9 °F 32.0 °F 33% 29.99 in 10.0 mi West 6.9 mph - N/A   Clear
5:32 PM 61.7 °F 31.8 °F 33% 29.99 in 10.0 mi West 8.1 mph - N/A   Clear
5:51 PM 61.0 °F 31.8 °F 33% 29.99 in 10.0 mi WSW 3.5 mph - N/A   Clear
6:12 PM 59.9 °F 31.8 °F 35% 29.99 in 10.0 mi SSW 4.6 mph - N/A   Clear
6:32 PM 59.0 °F 31.8 °F 36% 29.99 in 10.0 mi SSW 5.8 mph - N/A   Clear
6:51 PM 57.7 °F 32.0 °F 38% 29.99 in 10.0 mi SSW 6.9 mph - N/A   Clear
7:12 PM 57.2 °F 31.6 °F 38% 29.99 in 10.0 mi South 8.1 mph - N/A   Clear
7:32 PM 55.9 °F 31.6 °F 40% 29.99 in 10.0 mi SSE 6.9 mph - N/A   Clear
7:51 PM 55.4 °F 31.1 °F 40% 29.99 in 10.0 mi South 8.1 mph - N/A   Clear
8:12 PM 54.5 °F 31.5 °F 42% 29.99 in 10.0 mi South 8.1 mph - N/A   Clear
8:32 PM 53.6 °F 31.8 °F 44% 29.99 in 10.0 mi South 8.1 mph - N/A   Clear
8:51 PM 53.2 °F 31.8 °F 44% 29.99 in 10.0 mi South 9.2 mph - N/A   Clear
9:12 PM 50.9 °F 32.9 °F 50% 29.99 in 10.0 mi SE 10.4 mph - N/A   Clear
9:32 PM 49.6 °F 34.7 °F 56% 29.98 in 10.0 mi SE 10.4 mph - N/A   Clear
9:51 PM 49.6 °F 36.5 °F 61% 29.98 in 10.0 mi SSE 12.7 mph 16.1 mph N/A   Clear
10:12 PM 50.2 °F 38.3 °F 64% 29.98 in 10.0 mi SSE 10.4 mph - N/A   Clear
10:32 PM 50.2 °F 38.8 °F 65% 29.97 in 10.0 mi SSE 10.4 mph - N/A   Clear
10:51 PM 50.0 °F 39.2 °F 66% 29.97 in 10.0 mi SSE 8.1 mph - N/A   Clear
11:12 PM 49.5 °F 39.2 °F 68% 29.96 in 10.0 mi SE 10.4 mph - N/A   Clear
11:32 PM 49.1 °F 39.6 °F 70% 29.96 in 10.0 mi SSE 11.5 mph - N/A   Clear
11:51 PM 49.3 °F 39.4 °F 69% 29.95 in 10.0 mi SSE 10.4 mph - N/A   Clear